Miscellaneous Local Product
Issued by NWS North Platte, NE

Home | Current Version | Previous Version | Text Only | Print | Product List | Glossary On
Versions: 1 2 3 4 5 6 7 8 9 10 11 12 13 14 15 16 17 18 19 20 21 22 23 24 25 26 27 28 29 30 31 32 33 34 35 36 37 38 39 40 41 42 43 44 45 46 47 48 49 50
000
AXUS43 KLBF 152010
MISLBF


WESTERN AND NORTH CENTRAL NEBRASKA HOURLY WEATHER ROUNDUP
NATIONAL WEATHER SERVICE NORTH PLATTE NE
200 PM CST FRI DEC 15 2017

NOTE: "FAIR" INDICATES FEW OR NO CLOUDS BELOW 12,000 FEET WITH NO
SIGNIFICANT WEATHER AND/OR OBSTRUCTIONS TO VISIBILITY.

NOTE: STATIONS NOT REPORTING VARIABLES SUCH AS SKY/WEATHER OR
PRESSURE ARE PROVIDED BY RAWS AND APRS NETWORKS AND ARE NOT UNDER
NATIONAL WEATHER SERVICE QUALITY CONTROL.

...OBSERVATIONS IN AND NEAR THE EASTERN PANHANDLE OF NEBRASKA...

CITY           SKY/WX    TMP DP  RH WIND       PRES   REMARKS
PINE RIDGE     CLOUDY    51  19  28 W15G24    29.77F
GORDON         FAIR      52  18  26 W16       29.77F
CHADRON        CLOUDY    57  13  17 W13       29.79F
ALLIANCE       CLOUDY    54  16  22 W20       29.83F
SIDNEY         CLOUDY    60  12  15 W20       29.88F
CRESCENT LAKE    N/A     51  14  22 W13G23      N/A
$$

...OBSERVATIONS IN NORTHERN NEBRASKA AND FAR SOUTHERN SOUTH DAKOTA...

CITY           SKY/WX    TMP DP  RH WIND       PRES   REMARKS
WINNER         FAIR      49  32  52 SW10      29.73F
VALENTINE      SUNNY     51  27  39 SW13      29.76F
THEDFORD       SUNNY     56  22  26 W13       29.80F
AINSWORTH      SUNNY     47  34  61 SW10      29.77F
O`NEILL        SUNNY     44  29  56 SW14      29.78F
ORD            SUNNY     46  28  49 W13       29.83F
BROKEN BOW     SUNNY     48  28  46 W14       29.83F
VALENTINE NWR    N/A     47  26  44 W9G16       N/A
HALSEY           N/A     54  21  27 W9G17       N/A
BUTTE            N/A     43  30  59 SW10        N/A
CHAMBERS         N/A     44  27  51 W3          N/A
EWING            N/A     44  30  59 SW9         N/A
$$

...OBSERVATIONS IN SOUTHWEST NEBRASKA AND FAR NORTHEAST COLORADO...

CITY           SKY/WX    TMP DP  RH WIND       PRES   REMARKS
WRAY           FAIR      63   3   9 W14       29.91F
HOLYOKE        FAIR      61  12  15 W17       29.90F
IMPERIAL       SUNNY     58  10  15 W18       29.89F
OGALLALA       SUNNY     60  13  15 W13G24    29.85F
NORTH PLATTE   SUNNY     54  17  23 W15       29.86F
MCCOOK         SUNNY     56  14  19 W17       29.90F
LEXINGTON      SUNNY     51  21  30 W13       29.87F
STAPLETON        N/A     54  20  26 W3          N/A
GOTHENBURG       N/A     53  18  25 W9          N/A
CALLAWAY         N/A     49  25  39 W16         N/A
$$

...OBSERVATIONS IN CENTRAL LINCOLN COUNTY AREA...

CITY           SKY/WX    TMP DP  RH WIND       PRES   REMARKS
N.P. AIRPORT   SUNNY     54  17  23 W15       29.86F
N.P. DOWNTOWN    N/A     52  21  29 W3          N/A
N.P. SOUTHEAST   N/A     52  19  27 W5G12       N/A
N.P. HILLCREST   N/A     51  22  32 W12         N/A
$$

...SOME OBSERVATIONS FROM AROUND THE REGION...

CITY           SKY/WX    TMP DP  RH WIND       PRES   REMARKS
DENVER         MOSUNNY   61   5  10 W12       29.93F
GRAND JUNCTION SUNNY     40  12  32 SE7       30.26F
LARAMIE        CLOUDY    38  18  44 SW23      30.01F WCI  27
CHEYENNE       CLOUDY    51  13  21 W25G33    29.92F
CASPER         CLOUDY    40  19  43 SW29G37   29.92F WCI  29
BISMARCK       CLOUDY    43  25  49 W9        29.60F
RAPID CITY     CLOUDY    55  16  21 S7        29.71F
PIERRE         SUNNY     45  26  47 SW8       29.68F
SIOUX FALLS    PTSUNNY   41  27  57 SW10      29.77F
OMAHA          MOSUNNY   46  25  43 SW17      29.89F
GRAND ISLAND   SUNNY     45  29  53 SW17G28   29.85F
SCOTTSBLUFF    SUNNY     57  14  18 W18       29.86F
KANSAS CITY    CLOUDY    45  21  38 SW14      30.03F
HILL CITY      SUNNY     57  17  21 W14G20    29.95F
WICHITA        SUNNY     50  27  40 SW14G24   30.09F
DODGE CITY     SUNNY     55  20  25 SW15      30.04F
OKLAHOMA CITY  SUNNY     50  21  32 NW9G18    30.19F
DALLAS         MOSUNNY   56  23  27 NW12G20   30.24F
AMARILLO       SUNNY     53  23  31 W17G28    30.13F
$$




USA.gov is the U.S. government's official web portal to all federal, state and local government web resources and services.